Location: Killam
(52.7910°N, 111.8608°W)
Time: 10:28:53
(UTC+00:00)

AO-85 - Pass Details

Date: 11 December 2023
Orbit: 516 x 753 km, 64.8° (Epoch: 04 January)

Event Time Altitude Azimuth Distance (km) Brightness Sun altitude
Rises 00:59:49 0° 316° (NW) 2,818 ? -15.1°
Reaches altitude 10° 01:02:09 10° 325° (NW) 1,952 ? -15.5°
Maximum altitude 01:06:15 36° 33° (NNE) 1,011 ? -16.0°
Enters shadow 01:07:36 29° 69° (ENE) 1,169 ? -16.2°
